Location: Dana
(41.8364°N, 106.7042°W)
Time: 01:35:38
(UTC+00:00)

Altair - Pass Details

Date: 17 May 2026
Orbit: 1501 x 1682 km, 47.2° (Epoch: 6 June)

Event Time Altitude Azimuth Distance (km) Brightness Sun altitude
Rises 18:08:57 0° 297° (WNW) 4,936 9.9 64.8°
Reaches altitude 10° 18:12:14 10° 293° (WNW) 3,948 9.6 65.1°
Maximum altitude 18:21:52 50° 222° (SW) 2,039 9.2 66.0°
Drops below altitude 10° 18:31:19 10° 150° (SSE) 3,875 10.1 66.6°
Sets 18:34:32 0° 146° (SE) 4,838 10.4 66.8°
